Caldwell, NJ

1:40 PM EDT on May 23, 2018 (GMT -0400)
Essex County

Weather History for KCDW - July, 2014

Change the Weather History Date:

Friday, July 4, 2014

  Actual Average Record
Temperature  
Mean Temperature 68 °F -  
Max Temperature 73 °F 83 °F 103 °F (1966)
Min Temperature 64 °F 61 °F 48 °F (1982)
Cooling Degree Days 4    
Growing Degree Days 18 (Base 50)    
Moisture  
Dew Point 61 °F    
Average Humidity 79    
Maximum Humidity 97    
Minimum Humidity 51    
Precipitation  
Precipitation 0.06 in - - ()
Sea Level Pressure  
Sea Level Pressure 29.99 in    
Wind  
Wind Speed 3 mph (North)    
Max Wind Speed 12 mph    
Max Gust Speed 22 mph    
Visibility 9 miles    
Events Rain    
Averages and records for this station are not official NWS values.
T = Trace of Precipitation, MM = Missing Value Source: NWS Daily Summary

Daily Weather History Graph

Daily Weather History Graph

Search for Another Location

Airport or City:

Astronomy

Jul. 04, 2014 Rise Set
Actual Time 5:30 AM EDT 8:32 PM EDT
Civil Twilight 4:57 AM EDT 9:05 PM EDT
Nautical Twilight 4:15 AM EDT 9:47 PM EDT
Astronomical Twilight 3:25 AM EDT 10:36 PM EDT
Moon 12:27 PM EDT (7/4) No Moon Set
Length of Visible Light 16h 07m
Length of Day
15h 01m
Waxing Crescent, 42% of the Moon is Illuminated
Jul 4
Waxing Crescent
Jul 5
First Quarter
Jul 12
Full
Jul 18
Last Quarter
Jul 26
New

Hourly Weather History & Observations

Time (EDT) Temp. Dew Point Humidity Pressure Visibility Wind Dir Wind Speed Gust Speed Precip Events Conditions
12:53 AM 70.0 °F 69.1 °F 97% 30.01 in 7.0 mi Calm Calm - N/A   Overcast
1:53 AM 70.0 °F 68.0 °F 93% 30.00 in 9.0 mi Calm Calm - N/A   Overcast
2:53 AM 70.0 °F 69.1 °F 97% 30.00 in 8.0 mi Calm Calm - 0.00 in   Overcast
3:53 AM 70.0 °F 69.1 °F 97% 30.00 in 10.0 mi Calm Calm - N/A   Overcast
4:53 AM 70.0 °F 69.1 °F 97% 30.00 in 10.0 mi Calm Calm - 0.00 in   Overcast
5:53 AM 70.0 °F 69.1 °F 97% 30.01 in 10.0 mi Calm Calm - 0.00 in   Mostly Cloudy
6:53 AM 70.0 °F 68.0 °F 93% 30.01 in 10.0 mi Calm Calm - N/A   Mostly Cloudy
7:53 AM 69.1 °F 64.0 °F 84% 30.01 in 10.0 mi Calm Calm - N/A   Mostly Cloudy
8:53 AM 69.1 °F 62.1 °F 78% 30.02 in 10.0 mi Calm Calm - N/A   Overcast
9:53 AM 69.1 °F 62.1 °F 78% 30.01 in 10.0 mi NNE 3.5 mph - N/A   Mostly Cloudy
10:53 AM 70.0 °F 61.0 °F 73% 29.99 in 10.0 mi NNE 9.2 mph - N/A   Mostly Cloudy
11:53 AM 70.0 °F 60.1 °F 71% 29.99 in 10.0 mi NNE 8.1 mph - N/A   Overcast
12:53 PM 68.0 °F 61.0 °F 78% 29.99 in 10.0 mi Variable 5.8 mph 16.1 mph N/A   Overcast
1:53 PM 66.9 °F 61.0 °F 81% 29.97 in 10.0 mi NE 11.5 mph 18.4 mph 0.00 in   Overcast
2:28 PM 64.4 °F 62.6 °F 94% 29.96 in 2.5 mi NNW 8.1 mph - 0.02 in Rain Rain
2:40 PM 64.4 °F 62.6 °F 94% 29.95 in 2.0 mi Variable 6.9 mph 19.6 mph 0.04 in Rain Light Rain
2:49 PM 64.4 °F 62.6 °F 94% 29.95 in 3.0 mi Variable 6.9 mph - 0.05 in Rain Light Rain
2:53 PM 64.0 °F 61.0 °F 90% 29.96 in 3.0 mi North 8.1 mph - 0.05 in Rain Light Rain
3:53 PM 66.0 °F 62.1 °F 87% 29.97 in 10.0 mi Calm Calm - 0.01 in   Overcast
4:53 PM 69.1 °F 62.1 °F 78% 29.95 in 10.0 mi Variable 4.6 mph - N/A   Overcast
5:53 PM 72.0 °F 57.9 °F 61% 29.94 in 10.0 mi NNW 5.8 mph - N/A   Mostly Cloudy
6:53 PM 73.0 °F 54.0 °F 51% 29.95 in 10.0 mi NNW 8.1 mph 20.7 mph N/A   Overcast
7:53 PM 71.1 °F 53.1 °F 53% 29.97 in 10.0 mi NW 9.2 mph 17.3 mph N/A   Mostly Cloudy
8:53 PM 69.1 °F 52.0 °F 54% 29.99 in 10.0 mi NW 10.4 mph - N/A   Clear
9:53 PM 66.9 °F 52.0 °F 59% 30.03 in 10.0 mi NW 8.1 mph - N/A   Clear
10:53 PM 66.9 °F 51.1 °F 57% 30.04 in 10.0 mi NNW 8.1 mph - N/A   Clear
11:53 PM 66.0 °F 50.0 °F 56% 30.06 in 10.0 mi NW 11.5 mph 21.9 mph N/A   Clear